Location: Evergreen Manor
(41.4083°N, 81.4939°W)
Time: 23:13:20
(UTC+00:00)

Meteor 2-4 Rocket - Pass Details

Date: 11 December 2019
Orbit: 798 x 909 km, 81.2° (Epoch: 18 January)

Event Time Altitude Azimuth Distance (km) Brightness Sun altitude
Rises 11:04:54 0° 353° (N) 3,392 6.6 -17.5°
Reaches altitude 10° 11:07:23 10° 357° (N) 2,438 5.9 -17.1°
Maximum altitude 11:12:49 62° 78° (ENE) 910 4.1 -16.1°
Drops below altitude 10° 11:18:07 10° 159° (SSE) 2,372 6.6 -15.1°
Sets 11:20:29 0° 163° (SSE) 3,293 7.3 -14.7°
